[[{"header":{"parameterUnit":"m.s-1","parameterCategory":2,"la1":30.2991,"la2":30.254,"lo1":-89.0895,"lo2":-89.0444,"dy":0.0017,"dx":0.0017,"nx":28,"ny":28,"refTime":"2025-12-23T09:00:00:Z","depth":"0","parameterNumber":2,"parameterNumberName":"U-component_of_CURRENTS"},"data":[0,0,0,0,0,0,0,0,0,0,0,0,0,0,0,0,0,0,0,0,0,0,0,0,0,0,0,0,0,0,0,0,0,0,0,0,0,0,0,0,0,0,0,0,0,0,0,0,0,0,0,0,0,0,0,0,0,0,0.3176,0.3177,0,0.3196,0.3196,0.3196,0.3202,0.3202,0.3202,0.3203,0.3181,0.318,0.3179,0,0,0,0,0,0,0,0,0,0,0,0,0,0.3124,0.3125,0.3176,0.3177,0.3178,0.3196,0.3196,0.3196,0.3202,0.3202,0.3203,0.3203,0.3181,0.318,0.3179,0,0,0,0,0,0,0,0,0,0,0,0,0,0.3142,0.3125,0.3176,0.3186,0.3187,0.3196,0.3196,0.3196,0.3202,0.3202,0.3203,0.3203,0.3181,0.318,0.3179,0.3163,0,0,0.3175,0.3174,0,0,0,0,0,0,0,0,0.3141,0.3143,0.3184,0.3185,0.3187,0.32,0.317,0.3184,0.3202,0.3192,0.3203,0.3203,0.3186,0.3184,0.3182,0.3162,0.3161,0.3175,0.3174,0.3173,0.3173,0,0,0,0,0,0,0,0.314,0.3142,0.318,0.3184,0.3186,0.3183,0.3185,0.3172,0.3182,0.3193,0.3194,0.3203,0.3186,0.3183,0.3181,0.316,0.3175,0.3174,0.3173,0.3172,0.3134,0.3134,0,0,0,0,0,0,0.3146,0.3141,0.318,0.3181,0.3169,0.3184,0.3186,0.3192,0.3184,0.3184,0.3202,0.3203,0.3185,0.3183,0.318,0.3169,0.3173,0.3172,0.3172,0.3134,0.3134,0.3134,0,0,0,0,0,0,0.3145,0.3149,0.3179,0.3165,0.3169,0.3185,0.3191,0.3193,0.3193,0.3192,0.3191,0.3202,0.3185,0.3182,0.3175,0.3168,0.3172,0.3171,0.3135,0.3134,0.3134,0.314,0,0,0,0,0,0,0.3143,0.3148,0.3146,0.3165,0.317,0.3176,0.3191,0.3193,0.3199,0.32,0.3191,0.3189,0.3185,0.3177,0.3174,0.3166,0.317,0.3135,0.3134,0.3134,0.314,0.314,0.314,0,0,0,0,0,0.3141,0.3123,0.3146,0.315,0.317,0.3176,0.3176,0.3187,0.3199,0.319,0.3196,0.319,0.3171,0.3176,0.3172,0.3164,0.3135,0.3134,0.3134,0.314,0.314,0.314,0,0,0,0,0,0,0.3064,0.3124,0.3148,0.3141,0.3161,0.3178,0.3165,0.3186,0.3184,0.3181,0.3188,0.3186,0.3178,0.3169,0.3174,0.3151,0.3151,0.315,0.3157,0.3157,0.3156,0.3151,0.3168,0,0,0,0,0,0.3059,0.3078,0.3121,0.311,0.3122,0.3149,0.3152,0.3164,0.3172,0.3171,0.3175,0.3172,0.3171,0.3164,0.3157,0.3141,0.3141,0.3133,0.3132,0.3132,0.3125,0.3137,0.3138,0.3132,0.3132,0.3132,0,0,0.3024,0.3058,0.3065,0.3099,0.3112,0.3123,0.3149,0.3147,0.3156,0.3167,0.3165,0.3171,0.3169,0.3158,0.3152,0.3149,0.3132,0.3131,0.3131,0.3124,0.3137,0.3137,0.3138,0.3131,0.3131,0.3131,0,0,0.2971,0.2996,0.3007,0.3029,0.3063,0.3084,0.3088,0.3116,0.3126,0.3131,0.3148,0.3154,0.3142,0.3148,0.3148,0.314,0.3135,0.3132,0.3121,0.3133,0.3134,0.3134,0.3129,0.313,0.3127,0.3127,0.3127,0,0.2928,0.2955,0.3,0.3016,0.3031,0.307,0.3076,0.3089,0.311,0.3121,0.3125,0.3137,0.3139,0.3142,0.3141,0.314,0.3139,0.3125,0.3134,0.3134,0.3135,0.313,0.313,0.3127,0.3127,0.3127,0.3127,0,0.2907,0.2922,0.2917,0.2971,0.2984,0.2985,0.3029,0.304,0.3063,0.3086,0.3098,0.3109,0.3117,0.312,0.3127,0.3132,0.3127,0.3139,0.3137,0.3136,0.313,0.313,0.3127,0.3127,0.3127,0.3127,0,0,0.2825,0.2898,0.2894,0.2921,0.2965,0.2974,0.2988,0.3021,0.3034,0.3054,0.3067,0.3081,0.3096,0.3098,0.3112,0.3121,0.3131,0.3128,0.3128,0.3126,0.3144,0.3123,0.3121,0.3146,0.3146,0.3146,0.3136,0,0.2797,0.2831,0.2869,0.2879,0.2901,0.2942,0.2955,0.2984,0.3011,0.3028,0.3054,0.3064,0.3085,0.3089,0.3104,0.3123,0.3132,0.3131,0.3141,0.314,0.3126,0.3121,0.2939,0.2914,0.3136,0.3136,0.3136,0,0.2772,0.2806,0.2827,0.287,0.288,0.2887,0.2924,0.2938,0.2974,0.299,0.301,0.3034,0.3051,0.307,0.3099,0.3097,0.3118,0.3134,0.3135,0.3111,0.312,0.2951,0.2906,0.2696,0.3137,0.3137,0.3136,0,0.2728,0.2767,0.279,0.2806,0.286,0.2868,0.2887,0.2925,0.2937,0.2964,0.2968,0.3001,0.3005,0.3041,0.3079,0.3089,0.3107,0.3126,0.3126,0.3124,0.2969,0.2953,0.2723,0.315,0.315,0.315,0.315,0,0.2699,0.271,0.2773,0.2787,0.2798,0.2839,0.2843,0.287,0.2894,0.2901,0.2941,0.2947,0.3,0.3023,0.3064,0.3085,0.3096,0.3117,0.3121,0.2965,0.295,0.2762,0.2739,0.3149,0.315,0.315,0.315,0,0.2655,0.2697,0.272,0.2772,0.2783,0.2789,0.2814,0.282,0.2843,0.285,0.2855,0.2897,0.2921,0.2971,0.302,0.3053,0.297,0.3096,0.2902,0.2885,0.2701,0.2688,0.2521,0.2475,0.3086,0.3086,0.3085,0,0.2638,0.2653,0.2702,0.271,0.2732,0.2747,0.2756,0.2787,0.2798,0.2823,0.2824,0.2847,0.2873,0.2922,0.2963,0.3009,0.2905,0.2871,0.2868,0.2649,0.2638,0.2589,0.256,0.2655,0.2651,0.2648,0.2645,0,0.2609,0.263,0.266,0.268,0.269,0.2698,0.2717,0.2719,0.2754,0.2759,0.278,0.2801,0.2833,0.2796,0.2842,0.2847,0.2671,0.281,0.2612,0.2306,0.2204,0.2174,0.2701,0.2616,0.2619,0.2621,0.2623,0.2624,0.2581,0.2595,0.2637,0.2645,0.2655,0.2659,0.264,0.2674,0.268,0.2665,0.2715,0.2663,0.2591,0.2638,0.2634,0.2384,0.2534,0.2251,0.2262,0.2236,0.2152,0.2624,0.254,0.2542,0.2545,0.2546,0.2548,0,0.2546,0.2579,0.2597,0.2616,0.2602,0.2617,0.2617,0.2574,0.2568,0.2557,0.2555,0.2353,0.2234,0.2128,0.1932,0.1816,0.1783,0.1686,0.1503,0.152,0.1914,0.1848,0.1571,0.1572,0.1572,0.1572,0.1572,0.1573,0.2536,0.2548,0.2563,0.2553,0.2553,0.2471,0.2444,0.2414,0.2375,0.2227,0.2076,0.2007,0.176,0.1442,0.1166,0.1159,0.1058,0.1011,0.1089,0.1248,0.1298,0.1345,0.1267,0.0873,0.0872,0.0566,0.0563,0.0561]},{"header":{"parameterUnit":"m.s-1","parameterCategory":2,"la1":30.2991,"la2":30.254,"lo1":-89.0895,"lo2":-89.0444,"dy":0.0017,"dx":0.0017,"nx":28,"ny":28,"refTime":"2025-12-23T09:00:00:Z","depth":"0","parameterNumber":3,"parameterNumberName":"V-component_of_CURRENTS"},"data":[0,0,0,0,0,0,0,0,0,0,0,0,0,0,0,0,0,0,0,0,0,0,0,0,0,0,0,0,0,0,0,0,0,0,0,0,0,0,0,0,0,0,0,0,0,0,0,0,0,0,0,0,0,0,0,0,0,0,-0.1264,-0.1265,0,-0.1346,-0.1346,-0.1347,-0.1368,-0.1368,-0.1368,-0.1368,-0.1394,-0.1395,-0.1396,0,0,0,0,0,0,0,0,0,0,0,0,0,-0.1085,-0.1088,-0.1264,-0.1265,-0.1267,-0.1346,-0.1347,-0.1347,-0.1368,-0.1368,-0.1368,-0.1368,-0.1394,-0.1395,-0.1396,0,0,0,0,0,0,0,0,0,0,0,0,0,-0.1161,-0.1089,-0.1264,-0.1289,-0.1292,-0.1346,-0.1347,-0.1348,-0.1369,-0.1368,-0.1368,-0.1368,-0.1393,-0.1395,-0.1396,-0.1411,0,0,-0.14,-0.1401,0,0,0,0,0,0,0,0,-0.1157,-0.1167,-0.1284,-0.1287,-0.1291,-0.1349,-0.1293,-0.1367,-0.1369,-0.1336,-0.1368,-0.1367,-0.1376,-0.1379,-0.1392,-0.1412,-0.1414,-0.14,-0.1401,-0.1402,-0.1402,0,0,0,0,0,0,0,-0.1152,-0.1164,-0.1293,-0.1286,-0.129,-0.1282,-0.1293,-0.1307,-0.1354,-0.1339,-0.1342,-0.1356,-0.1377,-0.139,-0.1392,-0.1414,-0.14,-0.1402,-0.1402,-0.1403,-0.1451,-0.1451,0,0,0,0,0,0,-0.1151,-0.1159,-0.1291,-0.1296,-0.1225,-0.1286,-0.1298,-0.1328,-0.1355,-0.136,-0.1356,-0.1356,-0.1388,-0.1391,-0.1393,-0.1409,-0.1402,-0.1403,-0.1404,-0.145,-0.1451,-0.1451,0,0,0,0,0,0,-0.1147,-0.1163,-0.1288,-0.123,-0.1246,-0.129,-0.1324,-0.133,-0.1346,-0.1369,-0.1372,-0.1366,-0.1388,-0.1391,-0.1416,-0.141,-0.1404,-0.1405,-0.145,-0.145,-0.1451,-0.1442,0,0,0,0,0,0,-0.1142,-0.1161,-0.1174,-0.1231,-0.125,-0.1316,-0.1325,-0.1332,-0.1357,-0.1358,-0.1379,-0.1381,-0.1388,-0.1414,-0.1417,-0.1412,-0.1406,-0.1449,-0.145,-0.1451,-0.1442,-0.1443,-0.1443,0,0,0,0,0,-0.1135,-0.115,-0.1174,-0.119,-0.127,-0.1316,-0.1324,-0.1351,-0.1358,-0.1364,-0.1386,-0.138,-0.1421,-0.1416,-0.142,-0.1414,-0.1449,-0.145,-0.1451,-0.1442,-0.1442,-0.1443,0,0,0,0,0,0,-0.1066,-0.1156,-0.1183,-0.1222,-0.1267,-0.1321,-0.1325,-0.1353,-0.1377,-0.1373,-0.1394,-0.1398,-0.1415,-0.1421,-0.1415,-0.1431,-0.1431,-0.1432,-0.1422,-0.1423,-0.1424,-0.1406,-0.1407,0,0,0,0,0,-0.1063,-0.1103,-0.1179,-0.1205,-0.1228,-0.1279,-0.1299,-0.1323,-0.1358,-0.1368,-0.1389,-0.1406,-0.1423,-0.1429,-0.1444,-0.1457,-0.1441,-0.1454,-0.1455,-0.1455,-0.1444,-0.143,-0.1427,-0.1454,-0.1454,-0.1454,0,0,-0.1041,-0.1095,-0.1116,-0.1193,-0.1227,-0.1261,-0.1289,-0.1318,-0.1343,-0.1366,-0.1394,-0.1411,-0.1429,-0.1444,-0.145,-0.1447,-0.1438,-0.1456,-0.1456,-0.1444,-0.1431,-0.1428,-0.1425,-0.1455,-0.1455,-0.1455,0,0,-0.1016,-0.1068,-0.1095,-0.1137,-0.1198,-0.1235,-0.1247,-0.1308,-0.1329,-0.1366,-0.1386,-0.1402,-0.1433,-0.1443,-0.1452,-0.1465,-0.1444,-0.1469,-0.1452,-0.144,-0.1437,-0.1434,-0.1401,-0.1395,-0.1465,-0.1465,-0.1465,0,-0.098,-0.1042,-0.1102,-0.1137,-0.1168,-0.1225,-0.1252,-0.1285,-0.1345,-0.1361,-0.1369,-0.1413,-0.1429,-0.1444,-0.145,-0.1463,-0.1446,-0.1448,-0.1438,-0.1435,-0.1433,-0.1399,-0.1393,-0.1465,-0.1465,-0.1465,-0.1465,0,-0.0989,-0.1032,-0.1044,-0.1119,-0.1153,-0.1183,-0.1247,-0.1277,-0.1309,-0.1342,-0.1369,-0.1396,-0.1416,-0.1426,-0.1443,-0.1436,-0.1426,-0.1442,-0.1432,-0.1429,-0.1394,-0.1388,-0.1464,-0.1465,-0.1465,-0.1465,0,0,-0.0922,-0.1032,-0.1035,-0.1072,-0.115,-0.1181,-0.1218,-0.1273,-0.1291,-0.1333,-0.1348,-0.1382,-0.1391,-0.1402,-0.1421,-0.1412,-0.1382,-0.1416,-0.1416,-0.1373,-0.1333,-0.1242,-0.1226,-0.1395,-0.1394,-0.1393,-0.1312,0,-0.0909,-0.0976,-0.103,-0.1075,-0.1118,-0.1176,-0.1207,-0.1255,-0.1291,-0.1317,-0.1341,-0.1359,-0.1384,-0.1387,-0.1385,-0.1388,-0.1366,-0.1401,-0.135,-0.1348,-0.1259,-0.1216,-0.1084,-0.0993,-0.1306,-0.1305,-0.1304,0,-0.0903,-0.0956,-0.1006,-0.1083,-0.1101,-0.1124,-0.1181,-0.1215,-0.126,-0.1282,-0.13,-0.1323,-0.1326,-0.1343,-0.1326,-0.1346,-0.1332,-0.1328,-0.1325,-0.1235,-0.1244,-0.1049,-0.0969,-0.0954,-0.1294,-0.1295,-0.1296,0,-0.0854,-0.0934,-0.0976,-0.1004,-0.1094,-0.1109,-0.1145,-0.1196,-0.1217,-0.1249,-0.1251,-0.1273,-0.1267,-0.1266,-0.1265,-0.1292,-0.1226,-0.1265,-0.1164,-0.1158,-0.103,-0.1013,-0.0917,-0.1231,-0.1231,-0.1232,-0.1232,0,-0.0838,-0.0869,-0.0955,-0.0981,-0.1009,-0.1074,-0.109,-0.1131,-0.1163,-0.1168,-0.1219,-0.1211,-0.1246,-0.1227,-0.1234,-0.116,-0.1198,-0.1134,-0.1122,-0.1022,-0.1006,-0.0977,-0.1021,-0.1229,-0.1229,-0.123,-0.123,0,-0.0792,-0.0852,-0.09,-0.0977,-0.0993,-0.101,-0.1056,-0.1065,-0.1102,-0.1104,-0.1107,-0.1146,-0.1113,-0.1126,-0.1108,-0.1093,-0.1012,-0.102,-0.0886,-0.0859,-0.0748,-0.0797,-0.069,-0.0701,-0.0885,-0.0882,-0.088,0,-0.078,-0.0803,-0.0877,-0.089,-0.0921,-0.0952,-0.0966,-0.1023,-0.103,-0.1057,-0.1046,-0.1027,-0.0999,-0.0927,-0.0873,-0.0816,-0.0885,-0.0685,-0.0713,-0.0689,-0.0738,-0.0782,-0.0806,-0.0542,-0.0537,-0.0533,-0.053,0,-0.074,-0.0764,-0.0804,-0.0834,-0.085,-0.0872,-0.0897,-0.0895,-0.0945,-0.0931,-0.0908,-0.0885,-0.0805,-0.0662,-0.0586,-0.0573,-0.0639,-0.0598,-0.0608,-0.0471,-0.0478,-0.05,-0.0653,-0.0493,-0.0497,-0.05,-0.0501,-0.0503,-0.0685,-0.0703,-0.0743,-0.0761,-0.0782,-0.0779,-0.0759,-0.0773,-0.0752,-0.0687,-0.0726,-0.0579,-0.0467,-0.0322,-0.0345,-0.0238,-0.0367,-0.0211,-0.0275,-0.0324,-0.0319,-0.0375,-0.019,-0.0191,-0.0193,-0.0194,-0.0196,0,-0.06,-0.0634,-0.0662,-0.0682,-0.0666,-0.0696,-0.0696,-0.0651,-0.0581,-0.0474,-0.0398,-0.0128,0.0008,0.0038,0.0151,0.0121,0.0026,0.0064,0.0022,-0.0027,-0.0071,-0.004,0.0231,0.0231,0.0231,0.0231,0.0231,0.0231,-0.0555,-0.0562,-0.0593,-0.0555,-0.055,-0.0501,-0.0472,-0.0416,-0.0329,-0.0094,0.0134,0.0254,0.0338,0.0362,0.0364,0.031,0.0185,0.0222,0.0072,0.0043,0.0011,-0.002,0.0003,0.0278,0.0278,0.018,0.018,0.0179]}],[{"header":{"parameterUnit":"m.s-1","parameterCategory":2,"la1":30.2991,"la2":30.254,"lo1":-89.0895,"lo2":-89.0444,"dy":0.0017,"dx":0.0017,"nx":28,"ny":28,"refTime":"2025-12-23T09:00:00:Z","depth":"2","parameterNumber":2,"parameterNumberName":"U-component_of_CURRENTS"},"data":[0,0,0,0,0,0,0,0,0,0,0,0,0,0,0,0,0,0,0,0,0,0,0,0,0,0,0,0,0,0,0,0,0,0,0,0,0,0,0,0,0,0,0,0,0,0,0,0,0,0,0,0,0,0,0,0,0,0,0.1213,0.1214,0,0.1177,0.1176,0.1175,0.118,0.1181,0.1183,0.1184,0.1224,0.1223,0.1223,0,0,0,0,0,0,0,0,0,0,0,0,0,0.124,0.1239,0.1213,0.1214,0.1214,0.1178,0.1176,0.1175,0.1179,0.1181,0.1183,0.1185,0.1224,0.1223,0.1223,0,0,0,0,0,0,0,0,0,0,0,0,0,0.1209,0.1238,0.1213,0.122,0.122,0.1178,0.1176,0.1174,0.1179,0.1181,0.1183,0.1186,0.1224,0.1223,0.1223,0.1174,0,0,0.1221,0.1221,0,0,0,0,0,0,0,0,0.1211,0.1207,0.1218,0.1219,0.122,0.1194,0.1201,0.1182,0.1178,0.1184,0.1184,0.1187,0.1226,0.1225,0.1198,0.1176,0.1178,0.1221,0.1221,0.1221,0.122,0,0,0,0,0,0,0,0.1213,0.1208,0.1189,0.1219,0.122,0.1209,0.1207,0.1196,0.1186,0.1184,0.1186,0.1198,0.1226,0.1198,0.1199,0.1178,0.1221,0.1221,0.122,0.122,0.1237,0.1238,0,0,0,0,0,0,0.1237,0.121,0.119,0.1189,0.1232,0.1208,0.1204,0.1192,0.1185,0.1188,0.1196,0.1198,0.1198,0.12,0.1201,0.1241,0.1221,0.122,0.122,0.1237,0.1238,0.1238,0,0,0,0,0,0,0.1237,0.1235,0.1192,0.1208,0.1204,0.1206,0.1191,0.119,0.1204,0.1195,0.1198,0.1218,0.12,0.1202,0.1218,0.124,0.122,0.1219,0.1236,0.1237,0.1238,0.1259,0,0,0,0,0,0,0.1238,0.1234,0.124,0.1209,0.1204,0.1192,0.119,0.1188,0.121,0.1213,0.1214,0.1217,0.1202,0.1219,0.1218,0.1239,0.1219,0.1235,0.1236,0.1238,0.1258,0.1261,0.1264,0,0,0,0,0,0.1238,0.1238,0.124,0.1239,0.1209,0.1193,0.1188,0.1191,0.121,0.1211,0.1215,0.1219,0.1228,0.1218,0.1217,0.1238,0.1234,0.1236,0.1237,0.1256,0.126,0.1264,0,0,0,0,0,0,0.1255,0.1238,0.124,0.1236,0.123,0.1199,0.1208,0.1211,0.1209,0.1227,0.1217,0.1219,0.1247,0.1237,0.1227,0.1249,0.1236,0.1238,0.1251,0.1255,0.1258,0.1295,0.1218,0,0,0,0,0,0.1262,0.1252,0.1242,0.1239,0.1244,0.1231,0.1232,0.1235,0.123,0.1232,0.1227,0.1233,0.1241,0.1248,0.1247,0.1248,0.127,0.1266,0.1269,0.1271,0.1302,0.1353,0.1364,0.1244,0.1244,0.1244,0,0,0.127,0.1259,0.1257,0.1243,0.1238,0.1234,0.1235,0.1247,0.125,0.1237,0.1242,0.1247,0.1247,0.1252,0.1264,0.1253,0.1311,0.1274,0.1276,0.1305,0.1356,0.1368,0.1378,0.1245,0.1245,0.1245,0,0,0.1267,0.1273,0.1263,0.1264,0.1273,0.1261,0.1278,0.1263,0.127,0.1275,0.1274,0.1297,0.129,0.129,0.1293,0.1317,0.1332,0.1318,0.1357,0.1405,0.1416,0.1426,0.1443,0.1455,0.1313,0.1313,0.1313,0,0.1282,0.1261,0.1261,0.1258,0.1269,0.128,0.1283,0.1281,0.1273,0.1289,0.1295,0.1321,0.1313,0.134,0.1344,0.1327,0.135,0.1337,0.1411,0.1421,0.1431,0.1447,0.1459,0.1314,0.1314,0.1314,0.1314,0,0.1266,0.1265,0.1267,0.126,0.127,0.1278,0.1288,0.1302,0.1324,0.1328,0.1377,0.137,0.1396,0.1388,0.1372,0.1432,0.1423,0.1413,0.1402,0.1445,0.1458,0.147,0.1316,0.1316,0.1315,0.1315,0,0,0.1244,0.1252,0.1256,0.1263,0.1278,0.1282,0.1306,0.1326,0.1362,0.1381,0.1427,0.1443,0.1469,0.1476,0.1465,0.1498,0.1561,0.1488,0.149,0.1509,0.166,0.1536,0.1537,0.157,0.1573,0.1576,0.1631,0,0.123,0.1228,0.1237,0.1249,0.1251,0.1287,0.1307,0.1341,0.1374,0.1416,0.1461,0.1499,0.1493,0.1515,0.1555,0.1552,0.1601,0.1547,0.1616,0.1618,0.1505,0.155,0.14,0.1428,0.1644,0.1646,0.1647,0,0.1195,0.1203,0.1214,0.1249,0.1259,0.1278,0.1339,0.1361,0.1432,0.1466,0.1537,0.1568,0.162,0.1618,0.1688,0.1656,0.1684,0.1688,0.169,0.1586,0.1518,0.1427,0.1443,0.1668,0.1667,0.1665,0.1664,0,0.1159,0.1182,0.1195,0.1208,0.1251,0.1284,0.132,0.1385,0.1421,0.151,0.1556,0.163,0.1673,0.1729,0.1728,0.173,0.1794,0.179,0.1718,0.1708,0.1601,0.1575,0.1893,0.1893,0.1893,0.1893,0.1893,0,0.1122,0.1135,0.119,0.1198,0.1239,0.1283,0.1339,0.1388,0.1469,0.1519,0.1593,0.1639,0.1713,0.1744,0.1758,0.1749,0.1825,0.1747,0.1727,0.1597,0.1572,0.18,0.1789,0.1895,0.1894,0.1894,0.1894,0,0.1073,0.1106,0.1123,0.1188,0.1217,0.1254,0.1345,0.1385,0.1469,0.1541,0.1577,0.1664,0.1693,0.1725,0.1783,0.1768,0.1772,0.1762,0.1579,0.1536,0.1656,0.1646,0.1715,0.1712,0.1709,0.1706,0.1704,0,0.105,0.1049,0.1112,0.114,0.1177,0.1242,0.1284,0.1376,0.1417,0.1537,0.1563,0.1632,0.1635,0.1644,0.1617,0.1609,0.1701,0.1492,0.1476,0.1671,0.1645,0.1639,0.1632,0.134,0.1336,0.1332,0.1328,0,0.1012,0.1034,0.1059,0.1097,0.1149,0.1207,0.1279,0.1302,0.1407,0.1446,0.1476,0.1487,0.1499,0.1394,0.1389,0.1381,0.1469,0.1408,0.1688,0.1386,0.1316,0.129,0.1297,0.1292,0.1296,0.1298,0.13,0.1302,0.1002,0.1004,0.1031,0.1073,0.1126,0.1177,0.1171,0.1227,0.1258,0.1276,0.1318,0.1252,0.1255,0.1128,0.1101,0.1109,0.1242,0.1216,0.123,0.1249,0.1173,0.1099,0.102,0.1021,0.1023,0.1025,0.1026,0,0.0989,0.1005,0.1014,0.1054,0.1063,0.1127,0.1167,0.1103,0.1076,0.1096,0.1056,0.087,0.081,0.0843,0.0787,0.0807,0.0832,0.0796,0.082,0.0855,0.0887,0.0795,0.054,0.0539,0.0538,0.0536,0,0,0.0998,0.0995,0.0989,0.0998,0.1018,0.0987,0.0986,0.0896,0.0852,0.0743,0.0686,0.0682,0.0742,0.0571,0.0591,0.0557,0.0702,0.0536,0.0922,0.098,0.101,0.1122,0.1018,0,0,0,0,0]},{"header":{"parameterUnit":"m.s-1","parameterCategory":2,"la1":30.2991,"la2":30.254,"lo1":-89.0895,"lo2":-89.0444,"dy":0.0017,"dx":0.0017,"nx":28,"ny":28,"refTime":"2025-12-23T09:00:00:Z","depth":"2","parameterNumber":3,"parameterNumberName":"V-component_of_CURRENTS"},"data":[0,0,0,0,0,0,0,0,0,0,0,0,0,0,0,0,0,0,0,0,0,0,0,0,0,0,0,0,0,0,0,0,0,0,0,0,0,0,0,0,0,0,0,0,0,0,0,0,0,0,0,0,0,0,0,0,0,0,0.0318,0.0318,0,0.03,0.03,0.03,0.0283,0.0282,0.0282,0.0281,0.0191,0.0189,0.0187,0,0,0,0,0,0,0,0,0,0,0,0,0,0.0321,0.0321,0.0318,0.0317,0.0317,0.03,0.03,0.03,0.0283,0.0282,0.0282,0.0281,0.0192,0.019,0.0187,0,0,0,0,0,0,0,0,0,0,0,0,0,0.0315,0.0321,0.0318,0.0305,0.0303,0.03,0.03,0.03,0.0283,0.0282,0.0282,0.0281,0.0193,0.019,0.0187,0.0182,0,0,0.0178,0.0177,0,0,0,0,0,0,0,0,0.0316,0.0315,0.0307,0.0305,0.0304,0.0291,0.0268,0.0256,0.0283,0.0293,0.0281,0.0281,0.0217,0.0212,0.0215,0.0178,0.0174,0.0178,0.0176,0.0175,0.0174,0,0,0,0,0,0,0,0.0316,0.0316,0.0313,0.0307,0.0304,0.0293,0.0292,0.0266,0.026,0.0292,0.029,0.0285,0.0215,0.0218,0.0212,0.0173,0.0178,0.0175,0.0173,0.0172,0.0102,0.0102,0,0,0,0,0,0,0.0315,0.0317,0.0314,0.0313,0.0305,0.0294,0.0293,0.0298,0.0261,0.0255,0.0285,0.0284,0.0223,0.0216,0.0209,0.019,0.0175,0.0172,0.017,0.0102,0.0102,0.0102,0,0,0,0,0,0,0.0315,0.0315,0.0315,0.0311,0.031,0.0294,0.03,0.0298,0.0292,0.0256,0.0249,0.028,0.0222,0.0213,0.0183,0.0186,0.017,0.0168,0.0102,0.0102,0.0102,0.0159,0,0,0,0,0,0,0.0316,0.0316,0.0317,0.0312,0.031,0.0313,0.03,0.0298,0.0288,0.0286,0.025,0.0241,0.0221,0.0188,0.018,0.0182,0.0165,0.0102,0.0102,0.0102,0.0157,0.016,0.0163,0,0,0,0,0,0.0316,0.0329,0.0318,0.0317,0.0314,0.0313,0.0312,0.03,0.0289,0.0291,0.0264,0.0242,0.0181,0.0185,0.0176,0.0178,0.0102,0.0102,0.0102,0.0155,0.016,0.0163,0,0,0,0,0,0,0.0327,0.0327,0.0316,0.0326,0.0316,0.0309,0.031,0.0298,0.0282,0.0274,0.0242,0.0232,0.0208,0.0182,0.0188,0.0156,0.0137,0.0135,0.0181,0.0185,0.0188,0.0205,0.0163,0,0,0,0,0,0.0329,0.034,0.033,0.0335,0.0333,0.0319,0.0315,0.0304,0.0289,0.0281,0.0252,0.0221,0.0203,0.0185,0.016,0.0142,0.0138,0.0135,0.0138,0.0141,0.0148,0.0159,0.0165,0.0101,0.0101,0.0101,0,0,0.0328,0.0333,0.0334,0.0337,0.033,0.0332,0.0316,0.0311,0.0311,0.0272,0.0257,0.023,0.02,0.0184,0.017,0.0161,0.0156,0.0141,0.0144,0.015,0.0159,0.0166,0.0172,0.0101,0.0101,0.0101,0,0,0.0341,0.0341,0.0354,0.0352,0.0343,0.0338,0.0335,0.032,0.0314,0.0296,0.0272,0.0253,0.0209,0.0201,0.019,0.0195,0.0175,0.0175,0.0205,0.0215,0.0221,0.0226,0.0232,0.0237,0.0176,0.0176,0.0176,0,0.0334,0.0359,0.0355,0.0366,0.0365,0.0342,0.0349,0.0344,0.0317,0.0318,0.0293,0.0257,0.0225,0.0229,0.0226,0.0205,0.0202,0.0196,0.0223,0.0227,0.0232,0.0236,0.0241,0.0179,0.0178,0.0178,0.0178,0,0.036,0.0373,0.0382,0.0391,0.0387,0.0392,0.0379,0.0374,0.0356,0.0348,0.0339,0.0305,0.0287,0.0271,0.0246,0.0259,0.0245,0.023,0.0219,0.0242,0.0245,0.0249,0.0182,0.0181,0.0181,0.018,0,0,0.0365,0.0395,0.0396,0.0407,0.0403,0.0405,0.0408,0.0414,0.0428,0.0395,0.0416,0.0376,0.0357,0.0343,0.0313,0.0314,0.0336,0.0281,0.028,0.0299,0.0355,0.0328,0.033,0.0325,0.0326,0.0327,0.0346,0,0.0384,0.042,0.0425,0.0445,0.0461,0.0448,0.0458,0.0455,0.045,0.0463,0.0442,0.0438,0.0386,0.0378,0.0373,0.035,0.0349,0.0331,0.0319,0.0319,0.0303,0.0335,0.0324,0.0339,0.035,0.0351,0.0351,0,0.0411,0.0437,0.0464,0.0491,0.0495,0.0497,0.0516,0.0518,0.0532,0.0528,0.0526,0.051,0.0507,0.0458,0.0442,0.0432,0.0394,0.0372,0.0373,0.0332,0.03,0.0315,0.0346,0.0358,0.0358,0.0357,0.0357,0,0.0434,0.0464,0.049,0.0495,0.0517,0.0525,0.0527,0.0537,0.055,0.0568,0.0587,0.0581,0.0581,0.0547,0.0489,0.0469,0.0475,0.0446,0.0388,0.0385,0.0366,0.036,0.0433,0.0433,0.0433,0.0433,0.0433,0,0.0468,0.0488,0.0502,0.0521,0.055,0.0543,0.0573,0.0579,0.0596,0.0634,0.0615,0.0654,0.0601,0.0596,0.0532,0.048,0.0509,0.0404,0.0394,0.0383,0.0379,0.0382,0.0376,0.0434,0.0434,0.0434,0.0434,0,0.0492,0.0504,0.0535,0.0559,0.0566,0.0576,0.0592,0.0622,0.0627,0.068,0.0688,0.0712,0.0706,0.0648,0.0605,0.0538,0.0489,0.0455,0.0442,0.0428,0.0382,0.0378,0.0409,0.0408,0.0408,0.0407,0.0407,0,0.0509,0.0532,0.0558,0.0576,0.0587,0.0602,0.0628,0.0633,0.0669,0.0727,0.077,0.0779,0.0806,0.0732,0.0617,0.0516,0.0491,0.0428,0.0382,0.0396,0.0382,0.0379,0.0376,0.038,0.038,0.0379,0.0379,0,0.0544,0.0548,0.0574,0.0608,0.0634,0.0662,0.0696,0.0737,0.0767,0.0811,0.0892,0.0918,0.0852,0.0757,0.0599,0.0525,0.0444,0.0413,0.0454,0.038,0.0368,0.0354,0.0353,0.0374,0.0375,0.0375,0.0375,0.0376,0.0556,0.0574,0.0603,0.063,0.0665,0.0715,0.0753,0.0811,0.0868,0.0932,0.0972,0.0967,0.0886,0.066,0.0549,0.0401,0.0419,0.0352,0.0355,0.0357,0.0342,0.0329,0.0326,0.0326,0.0326,0.0326,0.0326,0,0.0563,0.0582,0.0623,0.0658,0.0699,0.071,0.0794,0.0837,0.0922,0.0952,0.0993,0.0864,0.0767,0.0635,0.0416,0.032,0.031,0.0272,0.0282,0.0288,0.0293,0.0274,0.024,0.0239,0.0238,0.0238,0,0,0.0562,0.0594,0.0612,0.0664,0.0699,0.075,0.0801,0.0875,0.0903,0.0919,0.0874,0.0892,0.0761,0.0584,0.0465,0.0337,0.0326,0.0307,0.0389,0.0421,0.0426,0.0354,0.0334,0,0,0,0,0]}],[{"header":{"parameterUnit":"m.s-1","parameterCategory":2,"la1":30.2991,"la2":30.254,"lo1":-89.0895,"lo2":-89.0444,"dy":0.0017,"dx":0.0017,"nx":28,"ny":28,"refTime":"2025-12-23T09:00:00:Z","depth":"4","parameterNumber":2,"parameterNumberName":"U-component_of_CURRENTS"},"data":[0,0,0,0,0,0,0,0,0,0,0,0,0,0,0,0,0,0,0,0,0,0,0,0,0,0,0,0,0,0,0,0,0,0,0,0,0,0,0,0,0,0,0,0,0,0,0,0,0,0,0,0,0,0,0,0,0,0,0.0059,0.006,0,0.0115,0.0116,0.0116,0.0145,0.0145,0.0145,0.0145,0.0203,0.0205,0.0206,0,0,0,0,0,0,0,0,0,0,0,0,0,0.0025,0.0025,0.0059,0.006,0.006,0.0115,0.0116,0.0116,0.0145,0.0145,0.0145,0.0145,0.0203,0.0205,0.0207,0,0,0,0,0,0,0,0,0,0,0,0,0,0.0057,0.0026,0.0059,0.0081,0.0083,0.0115,0.0116,0.0117,0.0145,0.0145,0.0145,0.0145,0.0202,0.0205,0.0207,0.0222,0,0,0.0214,0.0215,0,0,0,0,0,0,0,0,0.0055,0.0058,0.0077,0.0079,0.0082,0.0122,0.0125,0.0152,0.0145,0.0122,0.0145,0.0145,0.0176,0.0181,0.0192,0.0225,0.0227,0.0214,0.0216,0.0217,0.0217,0,0,0,0,0,0,0,0.0053,0.0056,0.0082,0.0078,0.0081,0.0104,0.0108,0.0131,0.0149,0.0124,0.0126,0.0132,0.0178,0.019,0.0194,0.0228,0.0214,0.0216,0.0218,0.0219,0.0312,0.0312,0,0,0,0,0,0,0.0042,0.0054,0.008,0.0083,0.0068,0.0105,0.0109,0.011,0.0149,0.0154,0.0131,0.0133,0.0186,0.0191,0.0196,0.0238,0.0217,0.0219,0.022,0.031,0.0312,0.0313,0,0,0,0,0,0,0.0041,0.0044,0.0078,0.007,0.0076,0.0105,0.0106,0.0111,0.0133,0.0154,0.016,0.0149,0.0186,0.0192,0.0219,0.0239,0.022,0.0222,0.0309,0.0311,0.0312,0.0307,0,0,0,0,0,0,0.004,0.0043,0.004,0.0069,0.0076,0.0095,0.0106,0.0112,0.0135,0.0138,0.0171,0.0176,0.0186,0.0215,0.0221,0.0242,0.0224,0.0308,0.031,0.0312,0.0306,0.0309,0.0311,0,0,0,0,0,0.0038,0.0033,0.0039,0.0042,0.007,0.0095,0.01,0.0122,0.0136,0.0143,0.0167,0.0175,0.0233,0.0218,0.0225,0.0246,0.0307,0.0309,0.0312,0.0305,0.0308,0.0311,0,0,0,0,0,0,0.0026,0.0037,0.0043,0.0044,0.0067,0.0099,0.0108,0.0128,0.0154,0.0161,0.0183,0.0189,0.0222,0.0236,0.022,0.0281,0.0274,0.0278,0.0267,0.027,0.0272,0.0275,0.0226,0,0,0,0,0,0.0019,0.0014,0.0037,0.004,0.0049,0.0082,0.0096,0.0116,0.0142,0.0155,0.0179,0.021,0.0237,0.0253,0.0277,0.0307,0.0321,0.0329,0.0331,0.0333,0.0341,0.0375,0.0381,0.0321,0.0321,0.0321,0,0,0.0019,0.0022,0.0022,0.0037,0.0057,0.0074,0.0091,0.0117,0.0136,0.0157,0.019,0.0217,0.0247,0.0279,0.0297,0.0293,0.0357,0.0336,0.0337,0.0345,0.0378,0.0384,0.0389,0.0322,0.0322,0.0322,0,0,0.0017,0.0017,0.0015,0.0029,0.0055,0.0074,0.0083,0.0121,0.014,0.0175,0.0198,0.0232,0.0277,0.0299,0.0316,0.0347,0.0366,0.0365,0.0379,0.0412,0.0417,0.0421,0.0437,0.0443,0.0367,0.0367,0.0367,0,0.002,0.0017,0.0022,0.0028,0.0044,0.0074,0.0092,0.0113,0.0157,0.0178,0.0185,0.0264,0.0285,0.0327,0.0343,0.0351,0.0372,0.0362,0.0413,0.0418,0.0423,0.0438,0.0445,0.0367,0.0367,0.0367,0.0367,0,0.0021,0.0021,0.0024,0.0037,0.0053,0.0074,0.0102,0.0125,0.0157,0.0187,0.0239,0.027,0.032,0.0335,0.0352,0.0403,0.0407,0.0408,0.0401,0.0428,0.0443,0.045,0.0367,0.0367,0.0367,0.0367,0,0,0.0038,0.0024,0.003,0.0035,0.0062,0.0081,0.0104,0.0142,0.0174,0.0212,0.0258,0.0306,0.0337,0.036,0.0386,0.0418,0.0466,0.0436,0.0438,0.0444,0.0537,0.0485,0.0488,0.0482,0.0483,0.0485,0.053,0,0.0047,0.0043,0.0042,0.0062,0.0072,0.0095,0.0119,0.0157,0.0196,0.0245,0.0282,0.0339,0.0342,0.0382,0.041,0.0465,0.0487,0.0453,0.0519,0.052,0.0464,0.0495,0.0489,0.0535,0.0537,0.0538,0.0539,0,0.0062,0.0054,0.0061,0.0074,0.0084,0.0104,0.0155,0.018,0.024,0.0275,0.0325,0.0366,0.0427,0.0426,0.0503,0.0488,0.0515,0.054,0.0543,0.0503,0.0482,0.0507,0.0551,0.055,0.0549,0.0549,0.0548,0,0.0078,0.0079,0.0079,0.0085,0.0101,0.0121,0.0145,0.0199,0.0232,0.0306,0.0352,0.0411,0.0462,0.0505,0.0556,0.0547,0.0634,0.0621,0.0587,0.0583,0.0616,0.0611,0.0665,0.0665,0.0665,0.0665,0.0665,0,0.0091,0.0098,0.0087,0.009,0.0113,0.0133,0.0176,0.021,0.0271,0.0314,0.0376,0.0417,0.0491,0.0544,0.0575,0.0603,0.0644,0.0598,0.0597,0.0612,0.0606,0.0621,0.0615,0.0666,0.0666,0.0666,0.0665,0,0.0106,0.0095,0.0101,0.0111,0.0118,0.0143,0.0185,0.0214,0.028,0.034,0.0372,0.0449,0.0517,0.0571,0.0645,0.0625,0.066,0.0653,0.0665,0.0663,0.0581,0.0575,0.0624,0.0623,0.0622,0.0621,0.062,0,0.0105,0.0104,0.0112,0.0115,0.0119,0.0147,0.0163,0.0217,0.0246,0.0343,0.0369,0.0461,0.0505,0.0566,0.0614,0.0662,0.065,0.0652,0.0616,0.0586,0.058,0.0576,0.0571,0.0618,0.0618,0.0618,0.0618,0,0.0104,0.011,0.0109,0.0114,0.0127,0.013,0.016,0.0182,0.0243,0.031,0.0367,0.0417,0.0483,0.0534,0.058,0.0604,0.0648,0.0641,0.0642,0.0609,0.0579,0.0574,0.057,0.0614,0.0614,0.0615,0.0615,0,0.0107,0.0105,0.0104,0.0113,0.0119,0.0111,0.0125,0.0153,0.0192,0.0299,0.0305,0.04,0.0464,0.0503,0.054,0.0572,0.056,0.0532,0.0539,0.0544,0.0499,0.0448,0.045,0,0,0,0,0,0.0109,0.0099,0.0098,0.0095,0.0099,0.0099,0.0119,0.0133,0.0195,0.0224,0.0269,0.0328,0.0396,0.0435,0.0456,0.0504,0.0559,0.0523,0.0528,0.0592,0.0597,0.0551,0,0,0,0,0,0,0.0106,0.0103,0.0094,0.008,0.0072,0.0065,0.0072,0.0103,0.0122,0.0194,0.0236,0.0296,0.0372,0.0392,0.0449,0.0463,0.0454,0.0579,0.0578,0.059,0.0594,0.0597,0.0552,0,0,0,0,0]},{"header":{"parameterUnit":"m.s-1","parameterCategory":2,"la1":30.2991,"la2":30.254,"lo1":-89.0895,"lo2":-89.0444,"dy":0.0017,"dx":0.0017,"nx":28,"ny":28,"refTime":"2025-12-23T09:00:00:Z","depth":"4","parameterNumber":3,"parameterNumberName":"V-component_of_CURRENTS"},"data":[0,0,0,0,0,0,0,0,0,0,0,0,0,0,0,0,0,0,0,0,0,0,0,0,0,0,0,0,0,0,0,0,0,0,0,0,0,0,0,0,0,0,0,0,0,0,0,0,0,0,0,0,0,0,0,0,0,0,0.0421,0.0421,0,0.0423,0.0423,0.0423,0.043,0.0431,0.0431,0.0431,0.0397,0.0396,0.0395,0,0,0,0,0,0,0,0,0,0,0,0,0,0.0398,0.0399,0.0421,0.0421,0.0421,0.0423,0.0423,0.0423,0.043,0.0431,0.0431,0.0431,0.0398,0.0397,0.0395,0,0,0,0,0,0,0,0,0,0,0,0,0,0.0406,0.0399,0.0421,0.0424,0.0425,0.0423,0.0423,0.0423,0.043,0.0431,0.0431,0.0431,0.0398,0.0397,0.0395,0.0383,0,0,0.0391,0.039,0,0,0,0,0,0,0,0,0.0405,0.0406,0.0424,0.0424,0.0424,0.0426,0.0402,0.0407,0.043,0.0429,0.0431,0.0431,0.0403,0.0401,0.0403,0.0381,0.038,0.0391,0.039,0.0389,0.0389,0,0,0,0,0,0,0,0.0405,0.0406,0.0422,0.0424,0.0424,0.0417,0.0418,0.0403,0.0415,0.0429,0.043,0.0428,0.0403,0.0404,0.0402,0.0379,0.0391,0.0389,0.0388,0.0388,0.0356,0.0356,0,0,0,0,0,0,0.0404,0.0406,0.0422,0.0422,0.0414,0.0417,0.0419,0.0426,0.0416,0.0415,0.0428,0.0429,0.0407,0.0404,0.0401,0.04,0.0389,0.0388,0.0387,0.0356,0.0356,0.0356,0,0,0,0,0,0,0.0404,0.0406,0.0422,0.0413,0.0414,0.0417,0.0425,0.0426,0.0435,0.0416,0.0414,0.0438,0.0407,0.0403,0.0391,0.0398,0.0387,0.0386,0.0356,0.0356,0.0356,0.0389,0,0,0,0,0,0,0.0403,0.0406,0.0414,0.0413,0.0415,0.0425,0.0425,0.0426,0.0433,0.0434,0.0423,0.0419,0.0406,0.0394,0.039,0.0396,0.0384,0.0356,0.0356,0.0356,0.0388,0.039,0.0392,0,0,0,0,0,0.0403,0.0411,0.0415,0.0417,0.0425,0.0425,0.0426,0.0428,0.0433,0.0438,0.0429,0.042,0.0392,0.0392,0.0388,0.0394,0.0355,0.0356,0.0356,0.0387,0.039,0.0392,0,0,0,0,0,0,0.0403,0.0412,0.0416,0.0427,0.0428,0.0426,0.0433,0.0434,0.0432,0.0436,0.0419,0.0415,0.0408,0.0394,0.0396,0.0384,0.0373,0.0372,0.0398,0.0401,0.0403,0.0412,0.0383,0,0,0,0,0,0.0407,0.042,0.0421,0.0431,0.0434,0.0436,0.0438,0.044,0.0437,0.0437,0.0426,0.0415,0.0404,0.0397,0.0384,0.0376,0.0359,0.0377,0.0379,0.0381,0.0386,0.0362,0.0363,0.0356,0.0356,0.0356,0,0,0.0408,0.0416,0.0423,0.0432,0.0437,0.044,0.0439,0.0447,0.0451,0.0432,0.0434,0.0422,0.0403,0.0396,0.0392,0.0386,0.0373,0.0381,0.0383,0.0387,0.0362,0.0363,0.0363,0.0356,0.0356,0.0356,0,0,0.0414,0.0428,0.0438,0.0442,0.045,0.0451,0.0455,0.0457,0.0462,0.0459,0.0448,0.044,0.0422,0.0411,0.0403,0.0408,0.0386,0.0404,0.0423,0.04,0.04,0.0401,0.0379,0.0377,0.0405,0.0405,0.0405,0,0.0414,0.0431,0.0439,0.0447,0.0454,0.0457,0.0465,0.0468,0.0464,0.0467,0.0464,0.0443,0.043,0.0421,0.0426,0.0414,0.0397,0.0416,0.0403,0.0403,0.0403,0.0381,0.0378,0.0406,0.0406,0.0406,0.0406,0,0.0424,0.0439,0.0446,0.0461,0.0466,0.0476,0.0479,0.0484,0.049,0.0491,0.0488,0.0468,0.0457,0.0452,0.0442,0.0434,0.0421,0.041,0.0399,0.0406,0.0382,0.0378,0.0409,0.0408,0.0408,0.0407,0,0,0.0419,0.0447,0.0452,0.0464,0.0478,0.0484,0.0493,0.0502,0.0513,0.0507,0.0512,0.0499,0.0494,0.0484,0.0468,0.0452,0.0437,0.0435,0.0433,0.0417,0.0386,0.0372,0.0367,0.0422,0.0421,0.0421,0.037,0,0.0425,0.0449,0.046,0.0481,0.0493,0.0502,0.0511,0.052,0.0525,0.0528,0.0518,0.0517,0.0504,0.0502,0.0484,0.0451,0.043,0.0452,0.0378,0.0376,0.0366,0.0363,0.042,0.0368,0.0367,0.0366,0.0366,0,0.0427,0.0447,0.0472,0.05,0.0507,0.0521,0.0543,0.0552,0.0557,0.0559,0.0555,0.0545,0.053,0.0514,0.0461,0.0476,0.0436,0.0406,0.0403,0.0377,0.0356,0.0358,0.0359,0.036,0.036,0.0361,0.0361,0,0.0423,0.0453,0.0479,0.0487,0.0516,0.0534,0.0554,0.0568,0.0583,0.0584,0.0592,0.0565,0.0556,0.0507,0.0459,0.0457,0.0394,0.0379,0.0325,0.0323,0.0336,0.0337,0.0332,0.0332,0.0332,0.0332,0.0332,0,0.0422,0.0444,0.0485,0.0499,0.053,0.055,0.0584,0.0592,0.0611,0.0627,0.0615,0.061,0.0555,0.0516,0.0462,0.0389,0.0394,0.0328,0.0309,0.0351,0.0354,0.0334,0.0335,0.033,0.0331,0.0331,0.0332,0,0.0413,0.044,0.0469,0.0513,0.053,0.0557,0.0611,0.0633,0.065,0.0667,0.0671,0.0645,0.0599,0.0541,0.0456,0.0396,0.0326,0.0295,0.0351,0.0335,0.0267,0.0271,0.0225,0.0224,0.0223,0.0223,0.0222,0,0.041,0.0425,0.0479,0.0503,0.0529,0.0576,0.0609,0.0646,0.0669,0.0684,0.0688,0.0659,0.0633,0.0508,0.044,0.0335,0.0314,0.0263,0.026,0.027,0.0256,0.0261,0.0265,0.0221,0.0221,0.0221,0.022,0,0.04,0.0425,0.0452,0.0503,0.0547,0.059,0.0643,0.0658,0.0694,0.0713,0.0693,0.0639,0.0584,0.0497,0.0421,0.0342,0.0289,0.0254,0.0255,0.0252,0.0265,0.0253,0.0258,0.0218,0.0218,0.0218,0.0219,0,0.0393,0.041,0.0453,0.0496,0.0551,0.0595,0.0621,0.0653,0.0679,0.0698,0.0684,0.0639,0.0612,0.05,0.0428,0.0356,0.0327,0.0274,0.0273,0.0275,0.0307,0.0331,0.0288,0,0,0,0,0,0.0384,0.0408,0.0444,0.0494,0.0549,0.0584,0.064,0.0663,0.0697,0.0682,0.0686,0.0638,0.0532,0.0491,0.0416,0.0407,0.0312,0.0312,0.0251,0.0203,0.0206,0.0233,0,0,0,0,0,0,0.0377,0.0414,0.0437,0.0492,0.0522,0.0584,0.062,0.0639,0.0634,0.0653,0.0607,0.0592,0.0504,0.058,0.0408,0.0388,0.0328,0.0277,0.0274,0.0201,0.0204,0.0207,0.0235,0,0,0,0,0]}]]